Location: Drocourt
(49.0571°N, 1.7669°E)
Time: 11:42:26
(UTC+00:00)

Transit 4A - Pass Details

Date: 14 April 2024
Orbit: 871 x 971 km, 66.8° (Epoch: 24 May)

Event Time Altitude Azimuth Distance (km) Brightness Sun altitude
Rises 19:35:44 0° 319° (NW) 3,484 12.3 -8.7°
Reaches altitude 10° 19:39:12 10° 339° (NNW) 2,535 10.9 -9.2°
Maximum altitude 19:42:56 17° 19° (NNE) 2,073 9.8 -9.7°
Drops below altitude 10° 19:46:38 10° 59° (ENE) 2,527 9.9 -10.3°
Enters shadow 19:49:03 - 75° (ENE) 3,157 10.3 -10.6°
Sets 19:50:05 0° 79° (E) 3,468 - -10.8°
